www.pogodaiklimat.ru

Погода и климат >> Архив погоды >> Греция >> Митилини


ПОГОДА в Митилини

  • Прогноз погоды в Митилини
  • Монитор погоды в Митилини

АРХИВ ПОГОДЫ в Митилини

Время (UTC), дата Ветер
(напр.,м/с)
 
Видим.   Явления Облачность Т
(С)
Тd
(С)
f
(%)
Тe
(С)
Тes
(С)
Комфортность P
(гПа)
Po
(гПа)
Тmin
(С)
Tmax
(С)
R
(мм)
R24
(мм)
S
(см)
06 19.04 С 7
{11}
10 км 4/4 600 м
[Sc diur, vesp]
+11.8 +2.6 53 +9 +10 1023.1 1022.6 +9.8 210
09 19.04 С 6
{11}
12 км 3/3 600 м
[Cu hum]
+13.4 +2.0 46 +12 +17 1023.6 1023.1
12 19.04 СЗ 6
{9}
15 км 1/1 600 м
[Cu hum]
+15.0 +1.3 39 +14 +19 1022.6 1022.0
15 19.04 С 4
{10}
15 км ясно +15.6 +2.2 40 +15 +17 1021.6 1021.1
18 19.04 штиль 0
{7}
15 км ясно +13.2 +2.9 50 +13 +13 1021.5 1021.0 +17.0
03 20.04 СВ 3
{7}
10 км 5/0
[Ac und]
+11.0 +2.7 57 +9 +9 1022.2 1021.6
06 20.04 СВ 4
{8}
10 км 3/3 600 м
[Cu hum]
+12.4 +2.9 52 +11 +13 1023.1 1022.6 +11.0 200
09 20.04 С 4
{8}
10 км 5/5 600 м
[Sc]
+14.4 +4.0 50 +13 +19 1023.8 1023.3
12 20.04 СЗ 5
{9}
14 км 3/3 600 м
[Cu hum]
+14.8 +0.3 37 +14 +19 1023.5 1023.0
15 20.04 С 6
{12}
15 км 6/3 600 м
[Cu med, cong Ac und]
+14.4 +1.6 42 +13 +14 1023.3 1022.7
18 20.04 С 6
{10}
15 км 1/1 600 м
[Cu hum]
+11.6 +2.4 53 +9 +9 1024.7 1024.2 +16.4
06 21.04 С 4
{9}
10 км ясно +11.6 +4.1 60 +10 +14 1024.7 1024.2 +8.0 180
09 21.04 СЗ 5
{7}
14 км ясно +13.6 +0.4 40 +12 +20 1025.4 1024.9
12 21.04 СЗ 6
{8}
12 км 1/1 600 м
[Cu hum]
+16.2 -2.3 28 +15 +21 1023.8 1023.3
15 21.04 СЗ 6
{9}
12 км 1/1 600 м
[Cu hum]
+15.8 -2.4 29 +15 +16 1022.7 1022.2
18 21.04 СВ 4
{7}
10 км ясно +14.8 +0.3 37 +14 +14 1022.7 1022.2 +17.4
21 21.04 СВ 4
{8}
10 км ясно +13.8 +5.3 56 +12 +12 1023.3 1022.7
03 22.04 СВ 3
{6}
10 км ясно +11.0 +4.3 63 +10 +10 1022.0 1021.5
06 22.04 штиль 0
{4}
10 км ясно +13.4 +4.3 54 +13 +20 1022.6 1022.0 +9.2 200
09 22.04 С 4
{6}
12 км ясно +16.2 +3.8 44 +16 +26 1023.6 1023.1
12 22.04 СЗ 3
{6}
10 км ясно +18.0 +2.3 35 +18 +30 опасность
простуды
1022.6 1022.0
15 22.04 В 2
{7}
10 км 3/0
[Ci fib]
+19.0 +5.1 40 +20 +23 1021.8 1021.3
18 22.04 ЮЗ 2
{4}
10 км 8/0 2000 м
[Ac und]
+14.6 +6.9 60 +14 +14 1020.9 1020.3 +19.4
06 23.04 штиль 0
{3}
15 км 10/5 1050 м
[Sc As op]
+14.2 +4.8 53 +14 +15 1023.5 1023.0 +12.0 220
09 23.04 штиль 0
{5}
15 км 9/3 1050 м
[Cu hum Ac trans]
+16.6 +6.5 51 +17 +24 1024.3 1023.8
12 23.04 штиль 0
{5}
10 км 9/5 900 м
[Sc As trans]
+18.4 +4.2 39 +19 +24 1024.3 1023.8
15 23.04 С 2
{4}
10 км 9/5 900 м
[Sc As trans]
+17.2 +7.3 52 +18 +18 1023.8 1023.3
18 23.04 штиль 0
{4}
10 км 9/4 900 м
[Cu hum As trans]
+16.0 +5.7 50 +16 +16 1023.8 1023.3 +18.4
06 24.04 штиль 0
{3}
12 км 9/4 900 м
[Sc Ac As]
+15.4 +10.5 73 +15 +17 1024.6 1024.0 +12.0 220
09 24.04 СВ 2
{4}
12 км 8/1 900 м
[Cu hum Cs]
+19.2 +12.1 63 +21 +35 комфорт 1025.5 1025.0
12 24.04 ЮВ 3
{4}
10 км 9/5 1200 м
[Sc Cs]
+22.0 +9.9 46 +24 +29 комфорт 1024.9 1024.3
15 24.04 ЮЗ 2
{6}
10 км 9/5 1200 м
[Sc Cs]
+23.4 +8.0 37 +24 +26 комфорт 1024.9 1024.3
18 24.04 Ю 4
{7}
10 км 9/5 1200 м
[Sc Cs]
+19.0 +6.8 45 +20 +20 1023.6 1023.1 +23.4
21 24.04 З 2
{6}
10 км 6/3 900 м
[Cu hum Ac trans Cs]
+17.0 +5.5 47 +17 +17 1024.7 1024.2
06 25.04 штиль 0
{3}
10 км 4/4 600 м
[Cu hum]
+16.4 +9.1 62 +16 +21 1024.7 1024.2 +12.4 200
09 25.04 С 2
{3}
10 км 3/0
[Ac trans]
+18.8 +11.2 61 +20 +34 опасность
простуды
1024.7 1024.2
12 25.04 штиль 0
{3}
10 км 8/0
[Cs]
+21.4 +13.1 59 +24 +41 комфорт 1023.5 1023.0
15 25.04 штиль 0
{4}
12 км 8/0
[Cs]
+22.8 +7.1 36 +24 +27 комфорт 1022.6 1022.0
18 25.04 штиль 0
{3}
12 км 5/0
[Cs]
+18.0 +11.0 64 +18 +18 1022.3 1021.8 +23.4

 

Местоположение метеостанции Митилини (Греция): широта 39.07 долгота 26.60 высота над уровнем моря 5 м.

В архиве по умолчанию представлена погода в Митилини за последнюю неделю. Архивные данные за месяц целиком и за предыдущие месяцы, начиная с января 2011 года, Вы можете получить, выбрав интересующий диапазон дат из раскрывающегося списка и нажав кнопку "Ввод!".


*Определитесь, кто Вы:
робот инопланетянин человек

Внимание! Время в таблицах - всемирное. Для получения местного времени необходимо прибавить поправку, которая равна 2 ч.

Смотрите также архив погоды в соседних городах и на ближайших метеорологических станциях:

Погода в Дикили (Турция) (23 км)
Погода в Айвалыке (Турция) (27 км)
Погода в Измир / Сигли (Турция) (73 км)
Погода в Измире (Турция) (87 км)
Погода в Манисе (Турция) (88 км)
Погода в Чешме (Турция) (90 км)
Погода на Хиосе (Греция) (92 км)
Погода в Измир аэропорту (Турция) (101 км)
Погода в Акхисаре (Турция) (109 км)
Погода в Чанаккале (Турция) (119 км)

Пояснения к столбцам:

Ветер - указаны скорость ветра в м/с - средняя за 10 мин, порывы в срок и между сроками (в фигурных скобках) и направление, откуда дует ветер: С - северный, СВ - северо-восточный, В - восточный, ЮВ - юго-восточный, Ю - южный, ЮЗ - юго-западный, З - западный, СЗ - северо-западный.
Видимость - горизонтальная дальность видимости в метрах или километрах. При видимости от 1 до 10 км при отсутствии осадков обычно наблюдается дымка, при ухудшении видимости до 1 км и менее - туман. В сухую погоду видимость может ухудшаться дымом, пылью или мглою.
Явления - указаны атмосферные явления, наблюдавшиеся в срок или в последний час перед сроком; фигурными скобками обозначены явления, наблюдавшиеся между сроками (за 1-3 часа до срока); квадратными скобками обозначены град или гололедные отложения с указанием их диаметра в мм.
Облачность - указаны через наклонную черту общая и нижняя облачность в баллах и высота нижней границы облаков в метрах; квадратными скобками обозначены формы облаков: Ci - перистые, Cs - перисто-слоистые, Cc - перисто-кучевые, Ac - высококучевые, As - высокослоистые, Sc - слоисто-кучевые, Ns - слоисто-дождевые, Cu - кучевые, Cb - кучево-дождевые. Подробнее классификацию облаков см. в Атласе облаков (PDF).
T - Температура воздуха - температура, измеренная на высоте 2 м над землей.
Td - Температура точки росы - температура, при понижении до которой содержащийся в воздухе водяной пар достигнет насыщения.
f - Относительная влажность воздуха - влажноcть воздуха, измеренная на высоте 2 м над землей.
Te - Эффективная температура - температура, которую ощущает одетый по сезону человек в тени. Характеристика душности погоды. При расчете учитывается влияние влажности воздуха и скорости ветра на теплоощущения человека.
Tes - Эффективная температура на солнце - температура, которую ощущает человек, с поправкой на солнечный нагрев. Характеристика знойности погоды. Зависит от высоты солнца над горизонтом, облачности и скорости ветра. Ночью, в пасмурную погоду, а также при ветре 12 м/с и более поправка равна нулю.
P - Атмосферное давление - приведенное к уровню моря атмосферное давление.
Po - Атмосферное давление - измеренное на уровне метеостанции атмосферное давление.
Tmin - Минимальная температура - минимум температуры воздуха на высоте 2 м над землей.
Tmax - Максимальная температура - максимум температуры воздуха на высоте 2 м над землей.
R - Количество осадков - Количество выпавших осадков за период времени, мм. При наведении курсора мыши на число - период времени, за который выпало указанное количество осадков.
R24 - Количество осадков - Количество выпавших осадков за 24 часа, мм.
S - Снежный покров - Высота снежного покрова, см. При наведении курсора мыши на число - состояние снежного покрова и степень покрытия местности в баллах.